Location: Maccacari
(45.1333°N, 11.1333°E)
Time: 03:37:41
(UTC+00:00)

Altair - Pass Details

Date: 28 January 2021
Orbit: 1501 x 1682 km, 47.2° (Epoch: 01 March)

Event Time Altitude Azimuth Distance (km) Brightness Sun altitude
Rises 05:23:55 0° 262° (W) 4,874 - -13.5°
Reaches altitude 10° 05:27:02 10° 263° (W) 3,905 - -13.0°
Exits shadow 05:27:48 13° 264° (W) 3,668 8.9 -12.8°
Maximum altitude 05:37:09 82° 352° (N) 1,699 7.7 -11.2°
Drops below altitude 10° 05:47:24 10° 81° (E) 3,941 10.8 -9.5°
Sets 05:50:33 0° 82° (E) 4,920 11.5 -9.0°
